Maplewood, Minnesota, United States
Lat: 44.95N, Lon: 93W
Wx Zone: MNZ062
Local Info
Past Weather Observations for Friday, November 21, 2014

NOTE: This archive is for the closest National Weather Service station to Maplewood. Information may differ from the station used for current weather conditions.

Click here for Long-term Archive

Time Weather Temperature Dewpoint Humidity Pressure Winds Precip Visibility
23:53
Overcast
32°F / 0°C 28°F / -2°C 87% 29.92 in
(1013 mb)
SSE 6.9 mph
(SSE 11 kph)
- 8SM
23:41
Mostly Cloudy
30°F / -1°C 27°F / -3°C 86% 29.92 in
(1013 mb)
SSE 8.1 mph
(SSE 13 kph)
- 8SM
22:53
Partly Cloudy
30°F / -1°C 25°F / -4°C 80% 29.92 in
(1013 mb)
SSE 10.4 mph
(SSE 17 kph)
- 10SM
21:53
Clear
30°F / -1°C 25°F / -4°C 80% 29.95 in
(1014 mb)
S 9.2 mph
(S 15 kph)
- 10SM
20:53
Clear
28°F / -2°C 23°F / -5°C 80% 29.95 in
(1014 mb)
SSE 8.1 mph
(SSE 13 kph)
- 10SM
19:53
Clear
28°F / -2°C 21°F / -6°C 74% 29.98 in
(1015 mb)
S 6.9 mph
(S 11 kph)
- 10SM
18:53
Clear
28°F / -2°C 21°F / -6°C 74% 29.98 in
(1015 mb)
SSE 8.1 mph
(SSE 13 kph)
- 10SM
17:53
Clear
28°F / -2°C 19°F / -7°C 69% 30.01 in
(1016 mb)
S 10.4 mph
(S 17 kph)
- 10SM
16:53
Clear
27°F / -3°C 19°F / -7°C 74% 30.04 in
(1017 mb)
SSE 13.8 mph
(SSE 22 kph)
- 10SM
15:53
Clear
27°F / -3°C 18°F / -8°C 69% 30.04 in
(1017 mb)
SSE 15 mph
(SSE 24 kph)
- 10SM
14:53
Clear
27°F / -3°C 16°F / -9°C 64% 30.06 in
(1018 mb)
S 17.3 mph
(S 28 kph)
- 10SM
13:53
Clear
27°F / -3°C 18°F / -8°C 69% 30.06 in
(1018 mb)
S 19.6 mph
(S 32 kph)
- 10SM
12:53
Mostly Cloudy
25°F / -4°C 16°F / -9°C 69% 30.12 in
(1020 mb)
SSE 20.7 mph
(SSE 33 kph)
- 10SM
11:53
Mostly Cloudy
23°F / -5°C 14°F / -10°C 68% 30.15 in
(1021 mb)
SSE 19.6 mph
(SSE 32 kph)
- 10SM
10:53
Clear
19°F / -7°C 12°F / -11°C 73% 30.18 in
(1022 mb)
SSE 12.7 mph
(SSE 20 kph)
- 10SM
09:53
Partly Cloudy
18°F / -8°C 10°F / -12°C 73% 30.21 in
(1023 mb)
SSE 15 mph
(SSE 24 kph)
- 10SM
08:53
Clear
10°F / -12°C 7°F / -14°C 85% 30.24 in
(1024 mb)
SSE 11.5 mph
(SSE 19 kph)
- 10SM
07:53
Clear
7°F / -14°C 3°F / -16°C 85% 30.24 in
(1024 mb)
S 6.9 mph
(S 11 kph)
- 10SM
06:53
Clear
3°F / -16°C 1°F / -17°C 92% 30.24 in
(1024 mb)
SSE 8.1 mph
(SSE 13 kph)
- 10SM
05:53
Clear
5°F / -15°C 1°F / -17°C 85% 30.24 in
(1024 mb)
SSE 9.2 mph
(SSE 15 kph)
- 10SM
04:53
Clear
5°F / -15°C 1°F / -17°C 85% 30.27 in
(1025 mb)
SE 6.9 mph
(SE 11 kph)
- 10SM
03:53
Clear
5°F / -15°C 3°F / -16°C 92% 30.27 in
(1025 mb)
SSE 6.9 mph
(SSE 11 kph)
- 9SM
02:53
Clear
3°F / -16°C 1°F / -17°C 92% 30.3 in
(1026 mb)
SSE 8.1 mph
(SSE 13 kph)
- 9SM
01:53
Clear
5°F / -15°C 1°F / -17°C 85% 30.3 in
(1026 mb)
S 5.8 mph
(S 9 kph)
- 10SM
00:53
Clear
7°F / -14°C 1°F / -17°C 78% 30.3 in
(1026 mb)
SSE 3.5 mph
(SSE 6 kph)
- 10SM
Time Weather Temperature Dewpoint Humidity Pressure Winds Precip Visibility


Weather for websites

WeatherForYou.com, LLC is not responsible for any damages or problems caused by this service. Current weather conditions are obtained from the closest station including government and personal stations which may have varying degrees of accuracy. Weather forecasts are derived from the NOAA NDFD. Like all things, this site belongs to Jesus Christ... He just trusts me to maintain it. If you have any questions or comments email webmaster@weatherforyou.com

Copyright © 2014, WeatherForYou.com LLC. All rights reserved.